[[{"header":{"parameterUnit":"m.s-1","parameterCategory":1,"la1":30.2991,"la2":30.254,"lo1":-89.0895,"lo2":-89.0444,"dy":0.0017,"dx":0.0017,"nx":28,"ny":28,"refTime":"2025-06-22T03:00:00:Z","depth":0,"parameterNumber":2,"parameterNumberName":"U-component_of_WINDS"},"data":[0,0,0,0,0,0,0,0,0,0,0,0,0,0,0,0,0,0,0,0,0,0,0,0,0,0,0,0,0,0,0,0,0,0,0,0,0,0,0,0,0,0,0,0,0,0,0,0,0,0,0,0,0,0,0,0,0,0,-3.444,-3.4439,0,-3.4354,-3.4353,-3.4352,-3.4226,-3.4224,-3.4222,-3.422,-3.4132,-3.4132,-3.4132,0,0,0,0,0,0,0,0,0,0,0,0,0,-3.4498,-3.4498,-3.444,-3.4439,-3.4438,-3.4354,-3.4353,-3.4352,-3.4226,-3.4224,-3.4221,-3.4219,-3.4132,-3.4132,-3.4132,0,0,0,0,0,0,0,0,0,0,0,0,0,-3.4449,-3.4497,-3.444,-3.4365,-3.4358,-3.4355,-3.4353,-3.4352,-3.4227,-3.4224,-3.422,-3.4217,-3.4132,-3.4132,-3.4131,-3.4195,0,0,-3.413,-3.413,0,0,0,0,0,0,0,0,-3.4452,-3.4447,-3.4377,-3.4371,-3.4362,-3.4297,-3.4341,-3.4299,-3.4228,-3.4277,-3.4219,-3.4216,-3.419,-3.4184,-3.4176,-3.4191,-3.4187,-3.413,-3.413,-3.413,-3.413,0,0,0,0,0,0,0,-3.4455,-3.445,-3.4406,-3.4377,-3.4367,-3.4337,-3.4326,-3.4333,-3.4253,-3.4272,-3.4263,-3.4254,-3.4185,-3.4176,-3.4173,-3.4186,-3.413,-3.413,-3.413,-3.4129,-3.4251,-3.4254,0,0,0,0,0,0,-3.447,-3.4453,-3.4409,-3.4404,-3.44,-3.4338,-3.4326,-3.4322,-3.4252,-3.4239,-3.4257,-3.4249,-3.4179,-3.4173,-3.4169,-3.4239,-3.413,-3.4129,-3.4129,-3.4247,-3.4252,-3.4255,0,0,0,0,0,0,-3.4471,-3.4467,-3.4412,-3.4426,-3.4417,-3.4341,-3.4336,-3.4322,-3.4313,-3.4241,-3.4226,-3.4263,-3.4176,-3.417,-3.419,-3.4235,-3.4129,-3.4129,-3.4243,-3.4249,-3.4253,-3.4381,0,0,0,0,0,0,-3.4473,-3.4468,-3.4491,-3.4427,-3.4416,-3.4434,-3.4339,-3.4322,-3.4312,-3.43,-3.4242,-3.423,-3.4173,-3.4191,-3.419,-3.4232,-3.4128,-3.4239,-3.4246,-3.4252,-3.4372,-3.439,-3.4405,0,0,0,0,0,-3.4476,-3.453,-3.4493,-3.4488,-3.4443,-3.4437,-3.4431,-3.4364,-3.4316,-3.4339,-3.4293,-3.4232,-3.4231,-3.4194,-3.4191,-3.4235,-3.4236,-3.4244,-3.4251,-3.4365,-3.4386,-3.4404,0,0,0,0,0,0,-3.46,-3.452,-3.4478,-3.4513,-3.4483,-3.4416,-3.4442,-3.4388,-3.4371,-3.4361,-3.4279,-3.4267,-3.4298,-3.4268,-3.4229,-3.4293,-3.4224,-3.4231,-3.4311,-3.4331,-3.4347,-3.4353,-3.4128,0,0,0,0,0,-3.4632,-3.4633,-3.4563,-3.4601,-3.4588,-3.4518,-3.4513,-3.4464,-3.443,-3.4417,-3.4372,-3.4342,-3.4334,-3.4331,-3.432,-3.4368,-3.4354,-3.4397,-3.4413,-3.4427,-3.4434,-3.4458,-3.4476,-3.4281,-3.4281,-3.4281,0,0,-3.4697,-3.4653,-3.4659,-3.4625,-3.4596,-3.46,-3.4508,-3.4516,-3.4518,-3.4418,-3.4434,-3.4401,-3.4362,-3.4396,-3.4409,-3.4372,-3.4485,-3.4437,-3.4448,-3.4448,-3.4468,-3.4487,-3.4503,-3.4286,-3.4285,-3.4285,0,0,-3.4817,-3.4784,-3.4812,-3.4786,-3.4743,-3.4697,-3.4704,-3.4645,-3.462,-3.4635,-3.456,-3.4562,-3.4551,-3.4527,-3.4513,-3.4627,-3.457,-3.4626,-3.471,-3.4735,-3.475,-3.4764,-3.4805,-3.4821,-3.4634,-3.4634,-3.4634,0,-3.4903,-3.4905,-3.4834,-3.4846,-3.4834,-3.4744,-3.4773,-3.4751,-3.4707,-3.4701,-3.4661,-3.4646,-3.4613,-3.4641,-3.467,-3.4661,-3.4668,-3.4631,-3.4754,-3.4767,-3.4778,-3.4816,-3.4832,-3.4641,-3.464,-3.464,-3.4639,0,-3.5013,-3.5017,-3.5045,-3.5005,-3.4996,-3.5017,-3.495,-3.495,-3.4903,-3.4861,-3.4879,-3.4837,-3.4816,-3.482,-3.4774,-3.4842,-3.4821,-3.4769,-3.4697,-3.4805,-3.484,-3.4854,-3.4651,-3.4649,-3.4647,-3.4645,0,0,-3.5207,-3.513,-3.5141,-3.5123,-3.5071,-3.5072,-3.509,-3.507,-3.5072,-3.5046,-3.5059,-3.5053,-3.5005,-3.499,-3.4941,-3.4963,-3.5057,-3.4907,-3.4905,-3.4937,-3.5131,-3.517,-3.5188,-3.5019,-3.5022,-3.5024,-3.5134,0,-3.5317,-3.5341,-3.5279,-3.532,-3.5322,-3.5239,-3.5254,-3.5225,-3.5187,-3.5184,-3.5143,-3.514,-3.5077,-3.5067,-3.5085,-3.5042,-3.5095,-3.5033,-3.5031,-3.5032,-3.5043,-3.5206,-3.5247,-3.5353,-3.5147,-3.5149,-3.5151,0,-3.5447,-3.5428,-3.547,-3.5417,-3.5416,-3.5431,-3.5409,-3.5407,-3.5373,-3.5344,-3.5328,-3.5271,-3.5286,-3.5219,-3.5238,-3.5198,-3.5194,-3.5173,-3.5175,-3.5172,-3.5097,-3.5207,-3.5385,-3.5401,-3.5172,-3.517,-3.5169,0,-3.5584,-3.557,-3.5593,-3.558,-3.5519,-3.5531,-3.5507,-3.5469,-3.5462,-3.5443,-3.5438,-3.5422,-3.5413,-3.5402,-3.5343,-3.5299,-3.537,-3.5297,-3.5347,-3.5349,-3.5365,-3.5364,-3.5545,-3.5364,-3.5364,-3.5363,-3.5363,0,-3.5713,-3.5741,-3.5654,-3.5668,-3.5698,-3.5627,-3.5659,-3.5626,-3.5594,-3.5601,-3.5528,-3.5536,-3.5458,-3.5458,-3.5412,-3.5436,-3.5433,-3.541,-3.5398,-3.5416,-3.5419,-3.5412,-3.5403,-3.5368,-3.5367,-3.5366,-3.5365,0,-3.587,-3.5813,-3.5832,-3.5774,-3.576,-3.5785,-3.5735,-3.5746,-3.5705,-3.5715,-3.5713,-3.5649,-3.5646,-3.5586,-3.557,-3.5539,-3.5582,-3.5555,-3.5593,-3.5585,-3.5638,-3.5634,-3.5819,-3.584,-3.5647,-3.5649,-3.565,0,-3.5955,-3.5975,-3.592,-3.5919,-3.5898,-3.5898,-3.5891,-3.5823,-3.5819,-3.5782,-3.5799,-3.579,-3.5778,-3.5777,-3.5729,-3.5717,-3.569,-3.5756,-3.5688,-3.5706,-3.5691,-3.569,-3.5692,-3.577,-3.5773,-3.5775,-3.5776,0,-3.6113,-3.6084,-3.6076,-3.6059,-3.6053,-3.6037,-3.6015,-3.602,-3.5945,-3.5944,-3.594,-3.5932,-3.5916,-3.5908,-3.5888,-3.5863,-3.5808,-3.5799,-3.5809,-3.5828,-3.5849,-3.5839,-3.5632,-3.5794,-3.5792,-3.5791,-3.579,-3.5789,-3.6236,-3.6251,-3.6214,-3.6209,-3.6186,-3.6169,-3.6177,-3.6137,-3.6133,-3.6114,-3.6075,-3.6078,-3.6045,-3.6012,-3.5992,-3.5994,-3.596,-3.5976,-3.598,-3.5985,-3.5995,-3.585,-3.599,-3.5989,-3.5989,-3.5988,-3.5988,0,-3.6389,-3.6362,-3.6358,-3.6331,-3.6328,-3.6277,-3.6252,-3.6252,-3.6255,-3.6229,-3.622,-3.6217,-3.621,-3.6163,-3.615,-3.6161,-3.6136,-3.616,-3.6158,-3.6154,-3.6026,-3.6018,-3.6181,-3.6181,-3.6181,-3.6181,-3.6181,-3.6181,-3.6469,-3.6491,-3.6458,-3.647,-3.6442,-3.6444,-3.6434,-3.6419,-3.6397,-3.6397,-3.6391,-3.636,-3.6326,-3.6311,-3.6303,-3.629,-3.6288,-3.6322,-3.63,-3.6181,-3.6162,-3.6145,-3.6136,-3.6322,-3.6322,-3.6427,-3.6428,-3.6429]},{"header":{"parameterUnit":"m.s-1","parameterCategory":1,"la1":30.2991,"la2":30.254,"lo1":-89.0895,"lo2":-89.0444,"dy":0.0017,"dx":0.0017,"nx":28,"ny":28,"refTime":"2025-06-22T03:00:00:Z","depth":0,"parameterNumber":3,"parameterNumberName":"V-component_of_WINDS"},"data":[0,0,0,0,0,0,0,0,0,0,0,0,0,0,0,0,0,0,0,0,0,0,0,0,0,0,0,0,0,0,0,0,0,0,0,0,0,0,0,0,0,0,0,0,0,0,0,0,0,0,0,0,0,0,0,0,0,0,1.3519,1.3519,0,1.351,1.351,1.351,1.3541,1.3542,1.3543,1.3544,1.3531,1.353,1.3529,0,0,0,0,0,0,0,0,0,0,0,0,0,1.356,1.3559,1.3519,1.3519,1.3519,1.351,1.351,1.351,1.3541,1.3542,1.3544,1.3545,1.3532,1.353,1.3529,0,0,0,0,0,0,0,0,0,0,0,0,0,1.3546,1.3559,1.3519,1.3533,1.3535,1.351,1.351,1.351,1.3541,1.3543,1.3544,1.3545,1.3532,1.3531,1.3529,1.3489,0,0,1.3523,1.3522,0,0,0,0,0,0,0,0,1.3547,1.3544,1.3531,1.3532,1.3534,1.3528,1.352,1.3502,1.3541,1.3538,1.3544,1.3546,1.3529,1.3528,1.3523,1.3488,1.3487,1.3523,1.3522,1.3521,1.352,0,0,0,0,0,0,0,1.3548,1.3545,1.3515,1.3531,1.3533,1.354,1.3539,1.3517,1.3526,1.3539,1.3541,1.354,1.353,1.3524,1.3523,1.3487,1.3523,1.3521,1.352,1.3519,1.3419,1.3418,0,0,0,0,0,0,1.3547,1.3546,1.3516,1.3515,1.3544,1.3538,1.3537,1.3529,1.3526,1.3527,1.3539,1.3541,1.3527,1.3525,1.3522,1.3475,1.3521,1.3519,1.3518,1.3421,1.3419,1.3417,0,0,0,0,0,0,1.3548,1.3544,1.3516,1.3531,1.3528,1.3535,1.3526,1.3528,1.3522,1.3526,1.3527,1.3531,1.3528,1.3525,1.3497,1.3475,1.3518,1.3517,1.3423,1.342,1.3418,1.338,0,0,0,0,0,0,1.3549,1.3544,1.353,1.353,1.3527,1.3491,1.3524,1.3526,1.3519,1.3523,1.352,1.352,1.3529,1.35,1.3495,1.3473,1.3515,1.3425,1.3422,1.3419,1.3383,1.3376,1.3371,0,0,0,0,0,1.355,1.3518,1.3529,1.3525,1.3509,1.349,1.3488,1.3499,1.3517,1.3502,1.3505,1.352,1.3478,1.3497,1.3492,1.3469,1.3426,1.3423,1.3419,1.3386,1.3377,1.3371,0,0,0,0,0,0,1.3513,1.3518,1.353,1.3497,1.3493,1.3495,1.3476,1.349,1.348,1.3483,1.3497,1.3496,1.3466,1.3465,1.3485,1.343,1.3455,1.3451,1.3431,1.3424,1.3418,1.3418,1.3514,0,0,0,0,0,1.3501,1.3486,1.3492,1.3462,1.346,1.3469,1.3461,1.347,1.3466,1.3464,1.3464,1.3459,1.3444,1.3434,1.3421,1.3384,1.3383,1.3366,1.3359,1.3354,1.335,1.333,1.3322,1.3406,1.3406,1.3406,0,0,1.3475,1.3477,1.3466,1.3455,1.3452,1.3436,1.3467,1.3448,1.3435,1.346,1.3434,1.3435,1.3429,1.3397,1.3382,1.3395,1.3327,1.335,1.3346,1.3344,1.3325,1.3317,1.331,1.3404,1.3404,1.3404,0,0,1.3421,1.3421,1.3396,1.3394,1.3391,1.3398,1.3392,1.3393,1.3394,1.3369,1.3387,1.3373,1.3348,1.3343,1.3337,1.3283,1.3296,1.3278,1.3245,1.3226,1.3219,1.3213,1.3193,1.3186,1.3274,1.3274,1.3274,0,1.3389,1.3366,1.3382,1.3362,1.3356,1.338,1.3355,1.3352,1.3344,1.3339,1.3354,1.3324,1.3321,1.3288,1.3275,1.327,1.3263,1.3278,1.3219,1.3213,1.3208,1.3189,1.3181,1.3272,1.3272,1.3272,1.3272,0,1.3327,1.3311,1.3292,1.3285,1.3277,1.3255,1.3266,1.3256,1.3267,1.3271,1.3245,1.3244,1.3231,1.3225,1.3234,1.3192,1.32,1.3217,1.3242,1.3197,1.318,1.3172,1.3268,1.3269,1.327,1.327,0,0,1.3246,1.325,1.3243,1.324,1.324,1.3227,1.3206,1.3195,1.3186,1.318,1.3162,1.3141,1.3157,1.3151,1.316,1.3143,1.31,1.3162,1.3162,1.3149,1.3053,1.3039,1.303,1.311,1.3108,1.3107,1.3053,0,1.3192,1.3157,1.3171,1.3134,1.3119,1.3142,1.3124,1.3121,1.3125,1.3113,1.3117,1.3102,1.3124,1.3121,1.3105,1.3108,1.308,1.3113,1.3091,1.3091,1.309,1.3021,1.3007,1.2955,1.3046,1.3045,1.3044,0,1.3123,1.3116,1.3078,1.3081,1.3075,1.3058,1.305,1.3038,1.3035,1.304,1.3034,1.3047,1.3026,1.3053,1.3024,1.3045,1.3038,1.3038,1.3037,1.3034,1.3063,1.3015,1.2939,1.2931,1.3033,1.3034,1.3035,0,1.3066,1.3048,1.3023,1.302,1.3023,1.3011,1.3011,1.301,1.3003,1.2996,1.2991,1.2981,1.2974,1.2966,1.2976,1.2995,1.2945,1.2973,1.2947,1.2946,1.2933,1.2933,1.2853,1.2931,1.2931,1.2931,1.2931,0,1.3003,1.2978,1.2998,1.2982,1.2955,1.2972,1.2945,1.2948,1.2947,1.2932,1.2952,1.2937,1.2952,1.2939,1.2947,1.2921,1.2918,1.292,1.2922,1.2917,1.2917,1.2911,1.2915,1.2929,1.293,1.293,1.293,0,1.2934,1.2946,1.292,1.2926,1.2927,1.2907,1.2912,1.2897,1.2904,1.2884,1.2881,1.2891,1.2876,1.2886,1.2871,1.2876,1.2842,1.285,1.2843,1.2844,1.2817,1.2819,1.2729,1.2718,1.2804,1.2803,1.2802,0,1.2892,1.2874,1.2879,1.2871,1.287,1.2857,1.2851,1.2867,1.2858,1.2855,1.2841,1.2828,1.2819,1.2794,1.2799,1.2787,1.2794,1.2764,1.2792,1.2788,1.2792,1.2793,1.2791,1.2757,1.2756,1.2755,1.2755,0,1.2816,1.2824,1.2814,1.2806,1.2798,1.2792,1.2788,1.278,1.2797,1.2787,1.2773,1.2766,1.2751,1.2738,1.2729,1.2728,1.2743,1.2746,1.2739,1.2733,1.273,1.273,1.2825,1.2747,1.2748,1.2749,1.2749,1.2749,1.2759,1.2744,1.2745,1.2734,1.2733,1.2729,1.2716,1.2722,1.2711,1.2701,1.2711,1.2694,1.2692,1.2682,1.268,1.2666,1.2679,1.2669,1.2666,1.2663,1.2659,1.2733,1.2665,1.2665,1.2665,1.2665,1.2666,0,1.2683,1.2685,1.2675,1.2669,1.266,1.2678,1.2675,1.2666,1.2651,1.2649,1.264,1.2624,1.2611,1.2617,1.2606,1.2594,1.26,1.259,1.259,1.259,1.2649,1.2655,1.2585,1.2585,1.2585,1.2585,1.2585,1.2585,1.2642,1.2618,1.2626,1.2601,1.2604,1.2588,1.2585,1.2581,1.258,1.2561,1.2552,1.2556,1.2557,1.2546,1.2536,1.2538,1.2532,1.2519,1.2523,1.2578,1.2586,1.2593,1.2599,1.2518,1.2518,1.2465,1.2464,1.2464]}]]